www.pogodaiklimat.ru

Погода и климат >> Архив погоды >> Австралия >> Квинсленд >> Юг Джонстон


ПОГОДА в Юг Джонстон

  • Прогноз погоды в Юг Джонстон
  • Монитор погоды в Юг Джонстон

АРХИВ ПОГОДЫ в Юг Джонстон

Время (UTC), дата Ветер
(напр.,м/с)
 
Видим.   Явления Облачность Т
(С)
Тd
(С)
f
(%)
Тe
(С)
Тes
(С)
Комфортность P
(гПа)
Po
(гПа)
Тmin
(С)
Tmax
(С)
R
(мм)
R24
(мм)
S
(см)
08 15.09 Ю 2 н/о н/о +22.4 +16.1 68 +27 +27 душно 1020.5 1018.4
11 15.09 штиль 0 н/о н/о +19.6 +17.3 87 +22 +22 комфорт 1021.7 1019.6
14 15.09 З 2 н/о н/о +18.4 +15.9 85 +20 +20 1021.2 1019.1 +26.3
17 15.09 штиль 0 н/о н/о +17.1 +15.4 90 +17 +17 1019.6 1017.5
20 15.09 штиль 0 н/о н/о +17.7 +15.8 89 +18 +18 1020.4 1018.3
23 15.09 В 4 н/о н/о +25.1 +13.2 48 +27 +27 жарко 1021.8 1019.7
02 16.09 В 4 н/о н/о +26.7 +19.6 65 +32 +32 очень
душно
1020.6 1018.5 +17.1
05 16.09 В 3 н/о н/о +26.0 +17.5 59 +30 +30 душно 1018.5 1016.4
08 16.09 ЮВ 3 н/о н/о +22.9 +16.7 68 +28 +28 душно 1018.8 1016.7
11 16.09 З 2 н/о н/о +18.9 +16.7 87 +21 +21 комфорт 1020.3 1018.2
14 16.09 ЮЗ 2 н/о н/о +17.7 +16.2 91 +18 +18 1019.8 1017.7 +27.1
17 16.09 штиль 0 н/о н/о +16.3 +15.6 96 +16 +16 1018.6 1016.5
20 16.09 СЗ 1 н/о н/о +15.6 +14.9 96 +16 +16 1019.2 1017.1
23 16.09 СЗ 1 н/о н/о +22.9 +17.4 71 +28 +28 душно 1020.6 1018.5
02 17.09 ЮВ 3 н/о н/о +25.8 +14.2 49 +28 +28 жарко 1019.2 1017.1 +15.3
05 17.09 ЮВ 4 н/о н/о +26.0 +17.9 61 +30 +30 душно 1017.1 1015.0
08 17.09 В 2 н/о н/о +22.2 +15.1 64 +26 +26 душно 1018.2 1016.1
11 17.09 З 1 н/о н/о +16.6 +14.9 90 +18 +18 1020.2 1018.1
14 17.09 З 2 н/о н/о +14.1 +13.4 96 +13 +13 1019.9 1017.8 +27.2
17 17.09 З 2 н/о н/о +12.7 +11.9 95 +12 +12 1018.9 1016.8
20 17.09 СЗ 2 н/о н/о +11.5 +10.9 96 +11 +11 1019.7 1017.6
23 17.09 ЮЗ 1 н/о н/о +19.6 +15.0 75 +23 +23 комфорт 1020.9 1018.8
02 18.09 ЮВ 2 н/о н/о +28.1 +17.6 53 +32 +32 душно 1018.2 1016.1 +11.6
05 18.09 В 4 н/о н/о +26.8 +20.0 66 +33 +33 очень
душно
1016.7 1014.6
08 18.09 СВ 2 н/о н/о +22.1 +17.2 74 +27 +27 душно 1018.1 1016.0
11 18.09 З 1 н/о н/о +17.9 +16.7 93 +19 +19 1019.6 1017.5
14 18.09 З 2 н/о н/о +15.8 +15.1 96 +16 +16 1019.2 1017.1 +29.5
17 18.09 З 3 н/о н/о +14.9 +14.2 96 +14 +14 1017.6 1015.5
20 18.09 ЮЗ 1 н/о н/о +14.2 +13.7 97 +14 +14 1018.6 1016.5
23 18.09 ЮЗ 2 н/о н/о +21.9 +18.0 79 +27 +27 душно 1020.3 1018.2
02 19.09 ЮВ 2 н/о н/о +26.7 +17.2 56 +31 +31 душно 1019.0 1016.9 +14.3
05 19.09 В 4 н/о н/о +26.1 +18.4 63 +31 +31 очень
душно
1017.5 1015.4
08 19.09 Ю 2 н/о н/о +22.9 +18.3 75 +29 +29 очень
душно
1018.2 1016.1
11 19.09 С 1 н/о н/о +19.3 +18.0 92 +23 +23 комфорт 1019.6 1017.5
14 19.09 штиль 0 н/о н/о +17.9 +17.1 95 +18 +18 1019.5 1017.4 +27.4
17 19.09 З 1 н/о н/о +16.3 +15.8 97 +17 +17 1018.2 1016.1
20 19.09 СЗ 1 н/о н/о +15.9 +15.4 97 +17 +17 1019.1 1017.0
23 19.09 ЮВ 3 н/о н/о +24.6 +17.3 64 +29 +29 душно 1020.8 1018.7
02 20.09 ЮВ 5 н/о н/о +25.7 +15.2 52 +29 +29 душно 1019.5 1017.4 +15.6
05 20.09 ЮВ 4 н/о н/о +26.2 +17.2 58 +30 +30 душно 1017.4 1015.3
08 20.09 ЮВ 3 н/о н/о +22.8 +18.0 74 +28 +28 душно 1018.0 1015.9
11 20.09 Ю 2 н/о н/о +22.8 +18.3 76 +28 +28 душно 1019.8 1017.7
14 20.09 ЮЗ 2 н/о {туман} н/о +20.8 +19.4 92 +26 +26 душно 1019.7 1017.6 +28.0
17 20.09 штиль 0 н/о {туман} н/о +20.0 +19.5 97 +23 +23 комфорт 1019.0 1016.9
20 20.09 З 1 н/о н/о +19.5 +19.0 97 +23 +23 комфорт 1019.6 1017.5
23 20.09 ЮВ 3 н/о н/о +25.4 +16.4 57 +29 +29 душно 1021.3 1019.2
02 21.09 ЮВ 4 н/о н/о +25.5 +16.7 58 +29 +29 душно 1020.1 1018.0 +19.5
05 21.09 ЮВ 4 н/о н/о +25.5 +18.0 63 +30 +30 душно 1018.2 1016.1
08 21.09 Ю 2 н/о {туман} н/о +22.0 +18.5 81 +27 +27 душно 1019.1 1017.0
11 21.09 Ю 2 н/о {туман} н/о +22.2 +18.4 79 +27 +27 душно 1020.7 1018.6
14 21.09 СЗ 1 н/о {туман} н/о +19.5 +18.9 96 +24 +24 комфорт 1020.5 1018.4 +27.4
17 21.09 З 1 н/о {туман} н/о +18.5 +17.8 96 +20 +20 1019.1 1017.0
20 21.09 штиль 0 н/о н/о +18.4 +17.7 96 +19 +19 1020.4 1018.3
23 21.09 ЮВ 4 н/о н/о +25.0 +16.9 61 +29 +29 душно 1021.7 1019.6
02 22.09 ЮВ 4 н/о н/о +26.8 +16.2 52 +30 +30 душно 1021.2 1019.1 +18.1
05 22.09 ЮВ 5 н/о н/о +25.1 +17.6 63 +29 +29 душно 1020.0 1017.9

 

Местоположение метеостанции Юг Джонстон (Квинсленд, Австралия): широта -17.60 долгота 146.00 высота над уровнем моря 18 м.

В архиве по умолчанию представлена погода в Юг Джонстон за последнюю неделю. Архивные данные за месяц целиком и за предыдущие месяцы, начиная с января 2011 года, Вы можете получить, выбрав интересующий диапазон дат из раскрывающегося списка и нажав кнопку "Ввод!".


*Определитесь, кто Вы:
робот инопланетянин человек

Внимание! Время в таблицах - всемирное. Для получения местного времени необходимо прибавить поправку, которая равна 10 ч.

Смотрите также архив погоды в соседних городах и на ближайших метеорологических станциях:

Погода в Кэрнсе (Квинсленд, Австралия) (84 км)
Погода в Марибе (Квинсленд, Австралия) (84 км)
Погода на Арлингтон рифе (Квинсленд, Австралия) (99 км)
Погода в Лусинде (Квинсленд, Австралия) (111 км)
Погода на Острове Лоу (Квинсленд, Австралия) (143 км)
Погода в Таунсвилле (Квинсленд, Австралия) (200 км)
Погода в Вулшеде (Квинсленд, Австралия) (210 км)
Погода на Холмс Рифе (Квинсленд, Австралия) (235 км)
Погода в Куктауне (Квинсленд, Австралия) (255 км)
Погода на Лихау рифе (Квинсленд, Австралия) (258 км)

Пояснения к столбцам:

Ветер - указаны скорость ветра в м/с - средняя за 10 мин, порывы в срок и между сроками (в фигурных скобках) и направление, откуда дует ветер: С - северный, СВ - северо-восточный, В - восточный, ЮВ - юго-восточный, Ю - южный, ЮЗ - юго-западный, З - западный, СЗ - северо-западный.
Видимость - горизонтальная дальность видимости в метрах или километрах. При видимости от 1 до 10 км при отсутствии осадков обычно наблюдается дымка, при ухудшении видимости до 1 км и менее - туман. В сухую погоду видимость может ухудшаться дымом, пылью или мглою.
Явления - указаны атмосферные явления, наблюдавшиеся в срок или в последний час перед сроком; фигурными скобками обозначены явления, наблюдавшиеся между сроками (за 1-3 часа до срока); квадратными скобками обозначены град или гололедные отложения с указанием их диаметра в мм.
Облачность - указаны через наклонную черту общая и нижняя облачность в баллах и высота нижней границы облаков в метрах; квадратными скобками обозначены формы облаков: Ci - перистые, Cs - перисто-слоистые, Cc - перисто-кучевые, Ac - высококучевые, As - высокослоистые, Sc - слоисто-кучевые, Ns - слоисто-дождевые, Cu - кучевые, Cb - кучево-дождевые. Подробнее классификацию облаков см. в Атласе облаков (PDF).
T - Температура воздуха - температура, измеренная на высоте 2 м над землей.
Td - Температура точки росы - температура, при понижении до которой содержащийся в воздухе водяной пар достигнет насыщения.
f - Относительная влажность воздуха - влажноcть воздуха, измеренная на высоте 2 м над землей.
Te - Эффективная температура - температура, которую ощущает одетый по сезону человек в тени. Характеристика душности погоды. При расчете учитывается влияние влажности воздуха и скорости ветра на теплоощущения человека.
Tes - Эффективная температура на солнце - температура, которую ощущает человек, с поправкой на солнечный нагрев. Характеристика знойности погоды. Зависит от высоты солнца над горизонтом, облачности и скорости ветра. Ночью, в пасмурную погоду, а также при ветре 12 м/с и более поправка равна нулю.
P - Атмосферное давление - приведенное к уровню моря атмосферное давление.
Po - Атмосферное давление - измеренное на уровне метеостанции атмосферное давление.
Tmin - Минимальная температура - минимум температуры воздуха на высоте 2 м над землей.
Tmax - Максимальная температура - максимум температуры воздуха на высоте 2 м над землей.
R - Количество осадков - Количество выпавших осадков за период времени, мм. При наведении курсора мыши на число - период времени, за который выпало указанное количество осадков.
R24 - Количество осадков - Количество выпавших осадков за 24 часа, мм.
S - Снежный покров - Высота снежного покрова, см. При наведении курсора мыши на число - состояние снежного покрова и степень покрытия местности в баллах.